User: anonymous   Login
Location: B�rgermoos
(47.6500°N, 9.0667°E)
Time: 04:54:33
(UTC+00:00)
Language:

Meteor 2-9 Rocket - Orbit

View from above orbital plane
View from above orbital plane
View from above satellite
View from above satellite

Ground track
Ground track

The orbit data is extracted from the following two-line orbital elements,

1 13719U 82116B   21125.35583459  .00000091  00000-0  40042-4 0  9996
2 13719  81.2571  51.0334 0070335 267.3686 214.5910 14.14670208980876
Epoch (UTC): 05 May 2021 08:32:24
Eccentricity: 0.0070335
inclination: 81.2571°
perigee height: 792 km
apogee height: 894 km
right ascension of ascending node: 51.0334°
argument of perigee: 267.3686°
revolutions per day: 14.14670208
mean anomaly at epoch: 214.5910°
orbit number at epoch: 98087

The dashed part of the orbit path shows where the satellite is in the earth's shadow,  

DLR